• In United Kingdom
  • List of Countries
  • For 7 days
  • Water Temperature
  • Satellite Maps
  • Weather Map
  • Weather Widgets
  • user-avatar
    Login

    Hourly Weather Wiktoria

    Today, 25 November, Saturday

    Time Temperature Precipitation Wind Pressure Humidity
    00:00 +22°C° 0 mm 3 mps 748 mmHg 56%
    01:00 +22°C° 0 mm 3 mps 748 mmHg 55%
    02:00 +21°C° 0 mm 3 mps 748 mmHg 57%
    03:00 +21°C° 0 mm 3 mps 748 mmHg 60%
    04:00 +20°C° 0 mm 3 mps 748 mmHg 62%
    05:00 +21°C° 0 mm 3 mps 748 mmHg 60%
    06:00 +22°C° 0 mm 4 mps 749 mmHg 59%
    07:00 +22°C° 0 mm 4 mps 749 mmHg 58%
    08:00 +26°C° 0 mm 4 mps 749 mmHg 52%
    09:00 +28°C° 0 mm 4 mps 749 mmHg 45%
    10:00 +30°C° 0 mm 4 mps 749 mmHg 39%
    11:00 +33°C° 0 mm 4 mps 748 mmHg 35%
    12:00 +34°C° 0 mm 4 mps 748 mmHg 31%
    13:00 +35°C° 0 mm 5 mps 748 mmHg 26%
    14:00 +34°C° 0 mm 4 mps 747 mmHg 31%
    15:00 +31°C° 0 mm 3 mps 747 mmHg 35%
    16:00 +30°C° 0 mm 2 mps 746 mmHg 39%
    17:00 +29°C° 0.1 mm 2 mps 747 mmHg 45%
    18:00 +27°C° 0.1 mm 1 mps 747 mmHg 50%
    19:00 +25°C° 0.1 mm 1 mps 747 mmHg 56%
    20:00 +24°C° 0.5 mm 1 mps 747 mmHg 60%
    21:00 +23°C° 0.5 mm 1 mps 747 mmHg 65%
    22:00 +22°C° 0.5 mm 1 mps 748 mmHg 70%
    23:00 +21°C° 0.4 mm 1 mps 747 mmHg 72%

    Tomorrow, 26 November, Sunday

    Time Temperature Precipitation Wind Pressure Humidity
    00:00 +20°C° 0.4 mm 2 mps 747 mmHg 75%
    01:00 +19°C° 0.4 mm 2 mps 747 mmHg 78%
    02:00 +19°C° 0.5 mm 2 mps 747 mmHg 80%
    03:00 +19°C° 0.5 mm 2 mps 747 mmHg 81%
    04:00 +19°C° 0.5 mm 2 mps 746 mmHg 82%
    05:00 +19°C° 0.4 mm 3 mps 747 mmHg 81%
    06:00 +20°C° 0.4 mm 4 mps 747 mmHg 80%
    07:00 +20°C° 0.4 mm 4 mps 747 mmHg 79%
    08:00 +22°C° 0.3 mm 4 mps 748 mmHg 73%
    09:00 +23°C° 0.3 mm 4 mps 748 mmHg 68%
    10:00 +26°C° 0.3 mm 4 mps 748 mmHg 62%
    11:00 +28°C° 0 mm 4 mps 747 mmHg 55%
    12:00 +30°C° 0 mm 4 mps 747 mmHg 48%
    13:00 +33°C° 0 mm 4 mps 747 mmHg 40%
    14:00 +33°C° 0 mm 3 mps 746 mmHg 40%
    15:00 +32°C° 0 mm 2 mps 745 mmHg 40%
    16:00 +32°C° 0 mm 2 mps 745 mmHg 39%
    17:00 +30°C° 0.2 mm 3 mps 745 mmHg 47%
    18:00 +28°C° 0.2 mm 3 mps 745 mmHg 54%
    19:00 +26°C° 0.2 mm 4 mps 745 mmHg 61%
    20:00 +23°C° 1.8 mm 4 mps 746 mmHg 71%
    21:00 +21°C° 1.8 mm 3 mps 747 mmHg 81%
    22:00 +19°C° 1.8 mm 2 mps 748 mmHg 90%
    23:00 +19°C° 1.3 mm 3 mps 747 mmHg 91%

    Day after tomorrow, 27 November, Monday

    Time Temperature Precipitation Wind Pressure Humidity
    00:00 +19°C° 1.3 mm 3 mps 747 mmHg 92%
    01:00 +19°C° 1.3 mm 3 mps 747 mmHg 94%
    02:00 +18°C° 0.6 mm 3 mps 747 mmHg 94%
    03:00 +18°C° 0.6 mm 3 mps 747 mmHg 94%
    04:00 +18°C° 0.6 mm 3 mps 747 mmHg 95%
    05:00 +19°C° 0.2 mm 3 mps 747 mmHg 92%
    06:00 +20°C° 0.2 mm 3 mps 748 mmHg 89%
    07:00 +20°C° 0.2 mm 3 mps 748 mmHg 86%
    08:00 +22°C° 0 mm 3 mps 748 mmHg 78%
    09:00 +25°C° 0 mm 3 mps 748 mmHg 71%
    10:00 +26°C° 0 mm 3 mps 748 mmHg 63%
    11:00 +27°C° 0 mm 3 mps 748 mmHg 61%
    12:00 +28°C° 0 mm 3 mps 748 mmHg 58%
    13:00 +29°C° 0 mm 3 mps 747 mmHg 56%
    14:00 +29°C° 0 mm 4 mps 747 mmHg 55%
    15:00 +29°C° 0 mm 4 mps 747 mmHg 54%
    16:00 +29°C° 0 mm 4 mps 747 mmHg 54%
    17:00 +28°C° 0.1 mm 4 mps 747 mmHg 59%
    18:00 +26°C° 0.1 mm 4 mps 747 mmHg 64%
    19:00 +23°C° 0.1 mm 5 mps 748 mmHg 69%
    20:00 +22°C° 0.1 mm 4 mps 748 mmHg 73%
    21:00 +21°C° 0.1 mm 4 mps 749 mmHg 77%
    22:00 +19°C° 0.1 mm 4 mps 750 mmHg 81%
    23:00 +19°C° 0 mm 4 mps 749 mmHg 83%

    28 November, Tuesday

    Time Temperature Precipitation Wind Pressure Humidity
    00:00 +19°C° 0 mm 4 mps 749 mmHg 85%
    01:00 +18°C° 0 mm 3 mps 749 mmHg 87%
    02:00 +18°C° 0 mm 3 mps 749 mmHg 89%
    03:00 +17°C° 0 mm 3 mps 749 mmHg 91%
    04:00 +17°C° 0 mm 2 mps 749 mmHg 93%
    05:00 +18°C° 0 mm 2 mps 749 mmHg 88%
    06:00 +20°C° 0 mm 2 mps 750 mmHg 83%
    07:00 +21°C° 0 mm 2 mps 750 mmHg 78%
    08:00 +24°C° 0 mm 2 mps 750 mmHg 70%
    09:00 +26°C° 0 mm 3 mps 750 mmHg 63%
    10:00 +28°C° 0 mm 3 mps 750 mmHg 55%
    11:00 +30°C° 0 mm 2 mps 750 mmHg 49%
    12:00 +31°C° 0 mm 2 mps 749 mmHg 43%
    13:00 +33°C° 0 mm 1 mps 749 mmHg 37%
    14:00 +33°C° 0 mm 1 mps 748 mmHg 35%
    15:00 +33°C° 0 mm 1 mps 748 mmHg 34%
    16:00 +33°C° 0 mm 1 mps 748 mmHg 33%
    17:00 +32°C° 0 mm 1 mps 748 mmHg 38%
    18:00 +30°C° 0 mm 1 mps 748 mmHg 42%
    19:00 +28°C° 0 mm 1 mps 749 mmHg 47%
    20:00 +27°C° 0 mm 2 mps 749 mmHg 50%
    21:00 +26°C° 0 mm 2 mps 749 mmHg 52%
    22:00 +25°C° 0 mm 2 mps 749 mmHg 55%
    23:00 +24°C° 0 mm 2 mps 749 mmHg 58%

    29 November, Wednesday

    Time Temperature Precipitation Wind Pressure Humidity
    00:00 +23°C° 0 mm 2 mps 749 mmHg 61%
    01:00 +22°C° 0 mm 3 mps 749 mmHg 65%
    02:00 +21°C° 0 mm 3 mps 749 mmHg 68%
    03:00 +21°C° 0 mm 3 mps 749 mmHg 71%
    04:00 +21°C° 0 mm 3 mps 749 mmHg 73%
    05:00 +22°C° 0 mm 4 mps 750 mmHg 71%
    06:00 +23°C° 0 mm 4 mps 750 mmHg 68%
    07:00 +25°C° 0 mm 5 mps 751 mmHg 66%
    08:00 +27°C° 0 mm 4 mps 750 mmHg 60%
    09:00 +29°C° 0 mm 4 mps 750 mmHg 54%
    10:00 +32°C° 0 mm 4 mps 750 mmHg 49%
    11:00 +33°C° 0 mm 4 mps 750 mmHg 44%
    12:00 +35°C° 0 mm 3 mps 749 mmHg 39%
    13:00 +36°C° 0 mm 3 mps 749 mmHg 35%
    14:00 +36°C° 0 mm 3 mps 748 mmHg 34%
    15:00 +36°C° 0 mm 3 mps 748 mmHg 33%
    16:00 +36°C° 0 mm 2 mps 748 mmHg 32%
    17:00 +34°C° 0 mm 2 mps 748 mmHg 36%
    18:00 +32°C° 0 mm 2 mps 748 mmHg 40%
    19:00 +30°C° 0 mm 2 mps 748 mmHg 45%
    20:00 +29°C° 0 mm 2 mps 748 mmHg 47%
    21:00 +28°C° 0 mm 2 mps 749 mmHg 49%
    22:00 +26°C° 0 mm 2 mps 749 mmHg 51%
    23:00 +26°C° 0 mm 2 mps 749 mmHg 54%

    30 November, Thursday

    Time Temperature Precipitation Wind Pressure Humidity
    00:00 +25°C° 0 mm 3 mps 749 mmHg 56%
    01:00 +25°C° 0 mm 3 mps 748 mmHg 59%
    02:00 +24°C° 0.1 mm 3 mps 748 mmHg 64%
    03:00 +24°C° 0.1 mm 3 mps 748 mmHg 70%
    04:00 +22°C° 0.1 mm 3 mps 748 mmHg 75%
    05:00 +23°C° 0.3 mm 4 mps 749 mmHg 76%
    06:00 +23°C° 0.3 mm 4 mps 749 mmHg 77%
    07:00 +23°C° 0.3 mm 4 mps 749 mmHg 78%
    08:00 +25°C° 0.7 mm 4 mps 749 mmHg 75%
    09:00 +26°C° 0.7 mm 4 mps 749 mmHg 72%
    10:00 +27°C° 0.7 mm 3 mps 749 mmHg 69%
    11:00 +27°C° 0.9 mm 3 mps 748 mmHg 68%
    12:00 +28°C° 0.9 mm 4 mps 748 mmHg 67%
    13:00 +28°C° 0.9 mm 4 mps 747 mmHg 67%
    14:00 +27°C° 1.3 mm 3 mps 747 mmHg 72%
    15:00 +26°C° 1.3 mm 3 mps 747 mmHg 78%
    16:00 +25°C° 1.3 mm 3 mps 746 mmHg 84%
    17:00 +25°C° 0.8 mm 3 mps 746 mmHg 85%
    18:00 +24°C° 0.8 mm 3 mps 746 mmHg 86%
    19:00 +24°C° 0.8 mm 3 mps 746 mmHg 87%
    20:00 +23°C° 2.5 mm 2 mps 747 mmHg 90%
    21:00 +23°C° 2.5 mm 2 mps 747 mmHg 92%
    22:00 +21°C° 2.5 mm 2 mps 747 mmHg 94%
    23:00 +21°C° 1.4 mm 2 mps 746 mmHg 94%
    Show more